EHI
0 0 0 0 0 0 0 0 0 0 0 0 0 0 0 0 0 0 0 0 0 0 0 0 0 0 0 0 0 0 0 0 0 0 0 0 0 0
0 0 0 0 0 0 0 0 0 0 0 0 0 0 0 0 0 0 0 0 0 0 0 0 0 0 0 0 0 0 0 0 0 0 0 0 0 0
0 0 0 0 0 0 0 0 0 0 0 0 0 0 0 0 0 0 0 0 0 0 0 0 0 0 0 0 0 0 0 0 0 0 0 0 0 0
0 0 0 0 0 0 0 0 0 0 0 0 0 0 0 0 0 0 0 0 0 0 0 0 0 0 0 0 0 0 0 0 0 0 0 0 0 0
0 0 0 0 0 0 0 0 0 0 0 0 0 0 0 0 0 0 0 0 0 0 0 0 0 0 0 0 0 0 0 0 0 0 0 0 0 0
0 0 0 0 0 0 0 0 0 0 0 0 0 0 0 0 0 0 0 0 0 0 0 0 0 0 0 0 0 0 0 0 0 0 0 0 0 0
0 0 0 0 0 0 0 0 0 0 0 0 0 0 0 0 0 0 0 0 0 0 0 0 0 0 0 0 0 0 0 0 0 0 0 0 0 0
0 0 0 0 0 0 0 0 0 0 0 0 0 0 0 0 0 0 0 0 0 0 0 0 0 0 0 0 0 0 0 0 0 0 0 0 0 0
0 0 0 0 0 0 0 0 0 0 0 0 0 0 0 0 0 0 0 0 0 0 0 0 0 0 0 0 0 0 0 0 0 0 0 0 0 0
0 0 0 0 0 0 0 0 0 0 0 0 0 0 0 0 0 0 0 0 0 0 0 0 0 0 0 0 0 0 0 0 0 0 0 0 0 0
0 0 0 0 0 0 0 0 0 0 0 0 0 0 0 0 0 0 0 0 0 0 0 0 0 0 0 0 0 0 0 0 0 0 0 0 0 0
0 0 0 0 0 0 0 0 0 0 0 0 0 0 0 0 0 0 0 0 0 0 0 0 0 0 0 0 0 0 0 0 0 0 0 0 0 0
0 0 0 0 0 0 0 0 0 0 0 0 0 0 0 0 0 0 0 0 0 0 0 0 0 0 0 0 0 0 0 0 0 0 0 0 0 0
0 0 0 0 0 0 0 0 0 0 0 0 0 0 0 0 0 0 0 0 0 0 0 0 0 0 0 0 0 0 0 0 0 0 0 0 0 0
0 0 0 0 0 0 0 0 0 0 0 0 0 0 0 0 0 0 0 0 0 0 0 0 0 0 0 0 0 0 0 0 0 0 0 0 0 0
0 0 0 0 0 0 0 0 0 0 0 0 0 0 0 0 0 0 0 0 0 0 0 0 0 0 0 0 0 0 0 0 0 0 0 0 0 0
0 0 0 0 0 0 0 0 0 0 0 0 0 0 0 0 0 0 0 0 0 0 0 0 0 0 0 0 0 0 0 0 0 0 0 0 0 0
0 0 0 0 0 0 0 0 0 0 0 0 0 0 0 0 0 0 0 0 0 0 0 0 0 0 0 0 0 0 0 0 0 0 0 0 0 0
0 0 0 0 0 0 0 0 0 0 0 0 0 0 0 0 0 0 0 0 0 0 0 0 0 0 0 0 0 0 0 0 0 0 0 0 0 0
0 0 0 0 0 0 0 0 0 0 0 0 0 0 0 0 0 0 0 0 0 0 0 0 0 0 0 0 0 0 0 0 0 0 0 0 0 0
0 0 0 0 0 0 0 0 0 0 0 0 0 0 0 0 0 0 0 0 0 0 0 0 0 0 0 0 0 0 0 0 0 0 0 0 0 0
0 0 0 0 0 0 0 0 0 0 0 0 0 0 0 0 0 0 0 0 0 0 0 0 0 0 0 0 0 0 0 0 0 0 0 0 0 0
0 0 0 0 0 0 0 0 0 0 0 0 0 0 0 0 0 0 0 0 0 0 0 0 0 0 0 0 0 0 0 0 0 0 0 0 0 0
Wind_Speed
5 5 4 3 4 4 3 3 2 4 4 3 2 1 1 1 2 2 3 7 9 11 12 12 12 13 14 14 15 15 15 16 16 16 17 17 18 18
3 4 4 4 4 4 3 3 3 3 4 4 4 4 3 4 5 3 4 10 11 13 13 12 13 13 15 15 15 15 15 16 16 16 17 17 18 18
5 5 5 4 4 4 4 4 3 3 4 5 4 4 4 4 4 4 5 5 5 8 10 12 13 14 15 16 16 15 16 16 16 16 17 17 18 18
5 5 5 5 5 4 4 4 4 3 4 6 5 5 5 5 4 5 6 6 5 9 9 10 12 13 14 15 15 15 14 14 15 16 16 17 17 18
4 4 4 5 5 5 5 5 4 5 4 5 6 4 4 5 5 6 6 5 7 8 8 8 10 13 14 15 15 14 14 13 13 14 15 16 17 18
3 3 3 4 4 5 5 5 5 6 6 5 5 5 4 5 4 4 5 4 6 7 7 7 8 11 13 13 14 14 13 12 12 12 13 14 15 16
4 3 3 3 2 3 4 5 6 5 6 6 6 5 5 5 5 4 5 5 6 4 4 5 5 4 5 7 9 10 10 10 11 11 12 12 13 14
4 4 3 3 3 4 7 8 8 7 6 6 6 6 7 6 5 5 5 5 5 4 4 6 5 4 4 3 5 7 10 11 11 11 12 12 12 13
3 4 5 6 6 7 9 10 8 9 10 7 7 7 7 6 5 6 6 6 7 6 5 6 4 4 4 3 5 8 9 10 11 12 12 12 12 13
3 3 4 4 6 7 8 8 7 6 6 5 5 7 7 5 5 6 7 7 7 5 3 4 4 4 5 3 6 8 9 10 11 11 12 12 12 13
4 3 4 4 5 7 7 8 8 6 8 9 10 11 13 14 9 5 6 5 7 6 3 3 4 5 4 3 2 6 9 10 10 11 12 12 12 11
4 1 3 3 6 7 6 7 8 7 9 11 9 9 8 9 9 6 5 5 5 5 3 3 4 4 4 4 3 3 4 7 9 10 11 10 10 6
6 4 2 4 8 9 7 6 8 8 9 8 7 6 4 3 3 3 4 4 4 4 4 3 4 3 3 4 4 3 3 3 3 4 6 7 8 5
5 5 5 10 12 13 9 9 12 11 6 5 5 5 4 4 4 4 4 4 5 6 6 4 3 3 3 4 4 4 4 3 3 3 4 4 5 6
5 10 13 14 13 9 7 10 9 5 4 4 5 4 4 4 4 4 4 4 4 5 4 3 3 3 2 3 4 4 4 4 4 4 4 3 3 3
7 11 14 12 9 9 8 5 3 3 4 4 4 4 4 4 3 3 3 4 3 3 3 3 2 2 2 4 4 4 4 4 5 5 4 3 3 3
9 8 5 4 3 3 4 4 4 4 4 4 4 4 4 4 4 3 3 3 3 3 3 2 1 0 1 2 4 5 5 4 4 5 4 3 3 4
7 6 5 4 5 5 5 5 4 5 5 5 5 5 4 4 4 4 3 3 3 3 3 3 3 2 1 1 2 5 5 5 5 5 4 4 4 4
4 3 4 4 5 5 5 5 5 5 5 5 5 5 5 5 5 4 3 3 3 3 3 2 2 3 4 4 2 2 4 5 5 5 4 3 4 4
3 4 4 4 4 5 5 5 5 5 5 5 5 6 6 5 5 5 4 4 3 3 3 2 2 2 1 1 1 2 3 4 4 5 5 3 2 3
5 5 5 5 5 5 5 5 5 5 6 6 6 7 6 6 5 5 4 5 4 3 3 2 2 2 2 0 1 1 1 1 2 3 5 4 4 5
5 5 5 5 5 6 5 6 6 6 7 6 7 7 7 6 5 5 5 4 4 4 4 3 2 2 1 2 2 1 0 0 1 3 4 4 3 3
4 5 5 5 6 6 7 8 8 7 7 8 8 8 8 7 5 5 5 4 4 5 5 4 3 2 2 1 1 1 1 1 1 1 1 2 2 2
Wind_Direction
36 32 18 12 11 3 356 352 346 336 330 341 350 355 12 39 218 272 287 283 273 262 257 258 266 273 279 283 286 288 288 289 289 289 289 288 288 287
34 35 20 11 4 352 348 345 347 341 328 335 337 354 351 329 317 309 291 290 271 265 261 256 255 260 268 275 280 283 285 287 288 288 288 288 289 288
27 26 17 14 6 345 350 347 347 353 328 319 323 319 314 307 305 299 292 281 281 282 268 257 251 253 260 268 274 278 281 283 286 288 289 290 291 291
25 17 9 8 2 359 350 342 341 330 322 315 313 311 316 308 300 299 304 307 303 296 274 255 252 253 257 261 265 267 269 272 277 282 286 288 289 289
20 15 8 9 8 1 339 346 340 341 323 310 306 306 309 313 319 310 309 303 302 303 293 267 259 259 260 260 261 261 262 265 268 273 279 283 285 286
12 8 9 18 16 350 338 349 341 330 321 313 309 314 316 324 328 324 316 314 309 309 313 304 280 269 263 260 260 260 260 262 263 266 270 273 278 282
4 0 357 31 23 316 334 336 328 325 319 320 318 320 323 333 332 319 315 313 304 297 312 305 298 291 280 266 260 256 252 253 258 262 266 269 272 275
1 351 340 79 353 314 309 301 291 294 306 310 311 317 317 323 319 315 315 318 315 312 316 302 297 293 284 266 233 234 243 251 257 262 267 270 272 274
354 350 353 21 22 358 335 320 303 282 263 267 288 297 303 308 317 316 316 314 302 296 300 297 297 296 290 280 219 231 245 255 262 266 270 272 275 277
348 1 358 25 25 355 331 325 322 321 297 272 268 279 291 301 305 301 299 300 295 294 302 291 299 300 300 279 231 239 251 259 266 271 274 277 279 282
354 15 5 17 18 350 330 325 324 326 330 317 284 278 282 283 278 287 294 303 310 309 315 296 301 312 303 300 285 248 259 266 271 275 278 281 285 291
344 6 69 6 341 337 328 319 318 327 326 317 308 292 279 277 269 242 259 287 301 305 325 321 309 329 316 307 320 309 281 278 277 280 285 286 291 297
337 343 31 342 329 322 313 289 298 313 306 301 306 308 308 298 285 252 239 254 283 290 298 317 309 318 297 298 308 320 325 319 313 301 294 290 291 292
325 338 338 324 317 310 301 287 301 307 297 308 319 323 325 323 311 299 284 271 260 262 273 282 279 298 307 310 309 318 326 332 337 326 322 316 302 299
324 328 315 305 304 299 291 295 299 295 308 322 327 323 315 310 309 306 305 296 288 283 286 286 284 295 314 311 313 325 325 326 338 334 331 341 348 348
344 322 309 297 285 280 296 305 296 307 322 321 321 317 318 317 313 315 319 320 319 313 302 298 297 307 328 329 335 339 340 333 333 334 331 344 3 7
325 307 308 330 343 347 341 338 336 341 341 333 331 331 331 328 326 326 326 330 338 335 339 344 342 351 86 13 348 344 341 341 339 337 340 356 9 10
316 310 333 350 354 355 351 349 348 350 345 340 338 334 335 334 330 332 345 347 346 341 341 352 5 9 13 59 23 345 343 344 345 350 356 360 4 10
303 324 354 355 354 351 353 351 347 349 345 344 344 339 340 339 334 339 348 346 344 345 345 353 9 16 9 355 345 10 346 343 352 357 358 7 4 360
354 360 359 355 352 350 351 351 348 349 351 349 347 344 342 340 339 342 344 348 341 345 351 351 355 6 4 317 309 341 357 355 354 354 348 349 17 10
9 1 353 352 353 350 349 350 350 353 358 352 348 343 339 337 338 341 344 352 350 345 348 332 308 288 240 250 11 340 354 20 35 4 345 350 5 16
10 357 348 355 358 353 352 355 355 359 1 355 344 338 333 332 338 341 344 353 353 347 345 333 324 332 359 18 9 359 22 166 111 61 37 22 12 18
11 354 349 1 5 357 357 360 4 2 358 350 341 333 329 331 334 340 343 354 358 355 348 341 341 347 360 11 12 11 53 167 161 94 26 8 51 69